RH
21 24 24 24 22 19 17 16 16 17 20 22 25 27 30 32 37 39 38 37 34 30 30 31 31 31 32 35 37 40 45 49 51 51 51 50 49 51 52 53 55 56 57 61 64 66 69 70 68 65 64 65 67 69 69 64 61 60 58 58 59 57 55 55 58 62 63 62 65 72 73 70 68 69 66 62 61 60 60 58 54 57 61 47 33 30 25
24 25 23 21 18 16 15 16 18 20 22 24 27 31 34 37 39 38 37 34 32 31 32 33 32 33 35 37 40 43 47 50 51 52 51 50 50 52 54 55 56 57 58 62 63 65 69 69 68 67 66 65 67 70 69 65 63 62 62 63 64 64 62 58 58 62 64 60 60 66 71 70 67 69 70 66 63 61 61 61 54 51 57 53 35 26 24
25 23 20 17 16 15 16 18 20 22 24 26 29 34 38 41 40 37 34 31 31 34 34 33 34 35 37 40 42 45 48 50 53 54 51 50 50 53 55 58 60 60 58 58 61 64 68 69 69 68 66 66 68 69 66 64 65 66 65 66 69 72 72 67 63 66 68 63 57 59 64 67 64 65 70 69 65 63 62 60 55 48 49 51 40 26 21
23 20 17 15 15 16 18 20 22 25 28 30 33 38 41 41 38 35 32 31 34 37 35 35 36 37 38 42 44 47 49 53 56 55 51 50 51 55 58 61 64 62 58 58 62 65 67 68 69 67 65 65 67 66 63 61 64 69 68 66 68 73 78 78 72 73 80 75 65 62 66 68 65 60 65 69 66 64 61 58 56 49 42 44 41 28 18
21 18 16 16 17 18 20 22 24 28 31 32 36 41 42 40 36 32 31 33 36 38 36 36 38 38 41 44 46 49 52 56 58 54 50 50 53 58 61 62 64 63 61 62 64 64 65 66 67 67 66 66 65 64 60 59 64 69 68 63 63 67 76 84 81 80 89 87 72 66 70 71 67 59 59 65 65 62 60 56 55 52 44 40 39 31 20
19 17 17 19 20 20 21 24 27 30 33 35 40 42 41 37 34 31 32 35 38 38 37 38 39 40 42 45 49 52 55 59 59 53 49 52 56 61 62 62 63 62 61 63 65 65 65 64 65 66 67 67 66 63 61 61 63 65 64 61 59 61 69 85 92 90 96 96 79 69 70 69 67 62 56 60 63 61 59 55 52 52 50 44 40 35 25
18 18 19 21 22 22 24 27 30 33 36 39 41 41 38 35 33 32 34 36 38 38 38 39 39 40 43 47 51 55 58 61 58 51 50 53 58 61 62 62 62 61 60 60 62 64 63 62 64 66 68 68 67 65 62 63 63 61 62 61 59 60 66 83 99 101 102 102 88 74 69 65 65 64 57 56 61 61 58 54 47 46 48 45 41 36 27
18 18 20 21 23 24 27 30 32 35 39 41 40 39 36 34 33 34 35 36 38 39 39 39 38 40 45 49 53 57 60 62 58 51 50 54 58 60 61 60 59 60 60 59 61 61 59 59 64 69 72 72 69 67 65 65 64 61 61 61 59 60 64 77 94 100 102 103 94 83 73 62 61 63 59 55 57 58 56 53 47 43 42 41 38 34 27
19 20 20 22 24 26 29 32 34 37 40 41 39 38 36 35 35 35 36 37 37 38 38 38 39 42 46 50 54 58 61 61 58 54 52 54 58 60 60 59 59 60 61 61 62 61 57 58 65 71 76 76 71 69 69 69 67 63 61 61 60 61 62 67 79 90 97 100 98 91 78 62 55 57 56 53 53 54 55 54 50 45 41 39 37 33 27
20 21 22 24 26 28 31 33 34 37 40 40 39 38 37 36 36 36 37 37 37 37 38 39 41 44 48 51 55 59 61 60 59 57 56 57 59 60 60 61 61 62 64 64 63 61 57 59 65 71 77 78 75 73 75 74 69 64 61 61 62 64 63 60 65 75 87 97 101 97 81 61 51 51 50 50 51 53 54 53 51 49 46 43 40 35 30
21 23 24 26 28 30 32 33 34 37 40 39 38 38 37 37 37 37 38 37 36 37 39 42 44 46 49 52 54 57 61 61 59 60 61 60 60 60 61 64 66 66 67 67 63 60 60 62 66 70 75 79 79 78 78 75 70 64 61 62 66 69 65 59 57 62 76 90 97 96 83 63 50 48 48 47 50 54 56 55 52 50 48 47 44 40 35
22 24 25 28 30 32 33 33 34 37 39 39 38 38 38 38 38 39 39 37 37 39 41 43 45 47 49 50 53 57 60 61 61 63 64 63 61 61 63 67 70 70 70 68 63 62 64 66 68 71 73 77 80 80 77 73 69 66 64 64 69 71 67 59 53 55 69 82 86 88 87 71 53 47 47 47 49 53 57 58 55 51 49 49 48 44 38
23 25 26 28 31 34 34 33 34 37 39 39 38 38 39 38 39 40 39 38 39 40 42 43 44 47 48 49 53 57 59 63 68 69 67 65 62 63 67 71 73 73 73 69 63 64 69 71 71 72 72 74 78 77 73 71 69 68 68 67 70 72 66 57 51 50 60 73 79 86 91 76 55 47 47 46 48 53 57 59 57 55 54 53 50 45 37
24 26 27 29 32 34 35 34 34 37 39 39 38 39 39 40 41 41 40 40 40 41 42 43 45 46 46 49 53 56 60 68 74 76 73 66 63 67 72 75 75 75 74 70 64 66 72 74 73 72 71 72 74 72 69 70 70 70 72 71 70 70 64 56 50 47 53 66 74 82 89 77 54 46 48 47 48 53 57 60 60 60 60 57 51 44 36
25 27 28 30 32 34 35 34 34 36 39 39 39 39 40 41 43 43 42 41 41 42 42 42 44 45 45 50 53 57 66 76 81 84 79 68 67 75 77 76 76 75 73 71 68 70 75 75 72 71 70 69 69 68 66 68 70 73 75 73 70 67 62 57 53 47 50 61 68 73 82 76 56 47 48 48 49 53 55 59 63 64 62 58 51 45 38
26 27 28 30 33 35 35 34 34 37 39 39 39 39 40 43 45 44 44 42 42 43 43 43 44 43 46 51 54 60 72 80 85 91 87 75 76 83 79 73 74 74 72 72 74 74 76 74 71 71 71 68 67 66 64 66 72 76 77 74 72 68 63 59 56 50 48 57 66 72 81 80 64 51 50 49 49 51 53 57 61 64 62 58 55 51 44
27 27 28 30 34 36 35 35 35 36 39 39 39 40 41 44 47 46 44 44 44 45 47 47 44 43 47 52 56 66 77 82 88 96 95 84 81 81 76 71 74 74 72 74 77 77 76 75 72 72 71 67 65 66 65 67 72 76 78 78 75 70 65 60 59 53 47 52 63 72 81 84 73 58 53 51 49 49 52 53 56 61 64 63 61 58 51
30 28 28 29 33 36 35 36 35 35 38 40 39 41 43 45 48 48 45 46 48 49 52 50 45 45 50 53 59 70 79 86 94 99 96 87 78 74 74 73 75 77 77 77 79 78 76 75 71 68 66 63 61 63 65 68 71 74 79 80 74 69 66 61 59 55 49 48 56 66 76 81 75 64 59 54 49 47 49 51 53 59 65 67 66 62 57
35 29 29 29 32 35 35 35 35 35 37 39 39 41 44 48 49 48 46 48 50 53 55 50 46 48 51 54 61 71 78 87 94 94 90 83 74 71 76 77 78 83 83 82 82 79 76 73 68 63 61 57 56 59 62 66 71 76 81 82 74 68 66 61 57 57 54 50 50 56 67 76 74 69 65 59 52 48 48 50 53 58 64 68 68 66 61
42 31 30 30 30 34 35 34 34 35 36 38 40 41 45 50 50 48 49 50 52 57 57 51 49 51 52 56 65 71 76 85 90 85 80 77 73 76 82 82 82 87 88 86 84 80 76 73 67 61 57 52 51 55 58 63 73 80 83 83 77 71 66 62 58 56 56 55 50 50 62 74 77 74 72 67 60 54 50 50 52 56 62 66 68 68 64
50 37 31 30 30 32 34 34 34 35 36 37 40 42 46 50 51 49 50 50 53 58 57 51 50 51 53 60 67 68 72 79 81 76 74 76 78 83 88 87 86 89 90 89 88 84 79 75 68 62 58 53 52 55 57 63 74 80 83 85 84 78 70 64 61 60 59 59 56 53 63 78 84 84 81 76 69 62 56 51 50 53 58 63 67 69 66
58 45 33 30 31 31 33 35 34 35 36 38 40 43 46 50 51 50 50 50 54 58 55 51 50 51 56 63 66 65 67 72 74 72 72 77 84 90 93 92 89 91 93 92 91 88 83 77 70 66 64 60 58 58 59 64 73 79 83 88 88 84 75 67 66 68 68 67 64 60 67 82 91 93 93 88 80 71 63 54 49 49 54 59 65 68 66
62 54 39 31 31 32 33 34 35 36 36 38 40 42 46 50 51 50 50 50 53 56 54 52 51 53 60 67 66 63 65 68 71 72 71 76 86 95 98 94 90 92 95 93 90 88 86 80 76 74 72 68 65 65 65 66 71 77 84 90 90 86 81 73 70 72 73 73 70 64 63 73 84 92 98 97 89 80 71 59 51 49 51 56 63 67 67
68 61 48 34 30 32 33 34 36 37 36 37 39 41 45 50 51 50 50 50 51 52 53 54 54 56 62 66 65 64 64 67 71 73 71 76 89 99 100 94 89 91 94 92 89 89 87 86 84 82 81 76 73 73 72 70 71 76 83 89 89 88 87 82 77 76 75 74 72 65 57 60 69 81 91 94 91 85 77 64 54 49 49 53 60 64 66
76 68 57 42 31 31 33 34 36 37 36 37 39 41 45 50 51 50 52 52 51 50 52 53 55 60 64 65 63 62 62 67 74 75 73 79 93 101 101 94 89 89 90 89 91 91 90 90 91 91 88 83 80 81 80 77 76 78 82 86 87 89 92 89 84 82 78 73 71 68 62 62 66 72 79 85 86 85 79 68 57 50 48 51 57 61 64
80 76 66 50 36 31 32 34 36 37 37 37 38 40 44 49 51 51 53 54 52 51 51 52 55 61 66 66 63 61 61 67 75 77 75 83 96 101 99 95 93 90 89 89 91 92 92 94 97 99 95 90 88 89 88 84 83 83 84 87 88 91 96 96 90 85 80 73 68 66 64 64 65 66 69 74 78 79 77 71 60 51 47 48 53 57 61
72 81 74 60 44 33 31 34 36 37 38 37 38 40 43 49 52 52 53 54 54 52 51 51 54 61 67 67 66 64 63 67 75 77 78 87 99 101 98 96 95 93 91 91 93 95 95 96 100 103 101 97 97 98 95 91 90 89 89 91 91 91 96 97 92 85 80 73 67 63 62 62 62 62 63 67 71 74 75 72 63 53 47 46 49 53 57
58 77 80 70 53 38 31 32 35 37 37 37 38 39 43 48 52 52 53 55 55 53 50 49 53 59 65 66 67 67 67 71 76 79 82 91 101 102 99 98 97 96 95 94 94 97 98 97 99 104 103 100 102 104 101 98 98 98 97 95 93 92 94 97 96 91 84 75 68 67 66 63 61 60 60 63 67 69 72 73 66 56 49 46 47 50 54
45 67 81 77 62 45 34 31 34 36 36 37 38 39 42 48 51 53 54 54 55 54 50 48 52 58 62 64 66 67 70 76 79 81 86 95 102 103 101 100 99 98 97 95 95 98 99 97 98 101 101 100 103 105 104 104 105 105 104 101 97 95 96 98 99 98 91 80 72 70 69 65 62 60 61 63 66 67 70 73 67 57 52 48 46 47 51
36 55 76 80 70 54 39 31 32 35 35 36 38 39 42 48 52 53 54 54 54 54 51 49 52 57 59 62 65 68 73 78 81 82 88 97 103 103 101 101 100 99 97 96 95 97 100 99 97 97 98 100 102 104 104 106 108 109 109 108 105 102 100 100 99 98 93 84 76 72 70 66 63 60 60 64 67 68 71 73 67 58 53 50 47 47 50
31 44 67 80 75 61 45 34 31 33 34 35 37 38 41 48 52 53 54 54 54 54 52 49 51 56 59 62 66 70 74 78 80 83 89 96 103 104 100 99 99 98 96 94 92 93 97 98 96 96 97 97 100 102 104 106 108 107 106 108 108 106 103 101 101 99 92 84 78 76 74 69 63 59 60 65 68 69 72 73 68 59 54 51 48 48 50
30 37 58 76 78 67 53 39 31 32 34 35 36 37 40 45 50 52 54 54 53 54 53 49 49 54 59 62 64 68 73 76 78 81 87 94 100 101 97 96 97 97 95 92 89 89 93 95 95 96 96 95 97 101 104 106 107 106 104 104 106 108 107 105 104 101 92 83 79 78 76 69 62 57 58 62 66 69 72 73 71 63 55 51 49 48 50
31 34 49 70 78 71 59 44 34 31 33 34 35 37 38 42 47 51 53 53 53 54 53 50 49 51 56 59 61 65 70 74 76 78 83 89 93 94 93 93 93 93 93 92 89 88 91 92 94 96 95 92 94 99 102 104 106 107 105 103 103 107 108 106 104 100 92 84 81 79 74 67 60 56 56 59 65 70 72 75 75 67 56 50 48 48 50
38 36 45 64 77 74 63 49 37 32 32 33 34 36 37 40 45 49 50 52 54 54 52 50 48 48 51 55 59 62 66 70 72 74 77 82 85 86 88 89 89 89 90 90 90 90 91 91 92 94 94 92 91 94 98 102 105 106 105 103 102 104 106 106 105 102 95 88 85 81 73 65 58 55 54 56 62 68 73 77 77 70 58 50 47 47 49
47 44 46 61 75 76 67 55 42 34 32 32 33 35 36 38 42 46 49 51 53 54 53 50 47 47 49 51 55 59 63 66 69 71 72 74 77 80 82 84 85 85 85 86 88 91 91 90 90 92 93 91 89 91 95 99 102 103 104 105 104 102 102 103 106 104 97 91 88 83 75 66 59 53 52 54 57 63 70 76 77 71 60 52 48 47 49
57 52 50 59 73 78 73 62 49 37 32 32 32 34 36 37 39 44 48 50 51 52 52 50 48 47 47 48 52 57 60 62 65 67 67 69 71 74 76 78 80 80 80 82 86 89 90 88 88 90 91 89 87 88 91 94 97 101 103 103 102 101 100 101 104 105 101 95 90 86 79 71 62 54 51 50 51 54 61 68 71 69 64 56 51 49 50
68 61 54 58 71 79 77 70 57 43 34 32 31 33 35 36 38 42 47 50 50 49 49 50 50 49 47 47 50 54 57 59 61 62 63 65 67 68 71 73 75 76 76 78 82 87 88 87 86 87 87 86 85 84 84 87 92 96 99 100 99 99 100 101 102 106 106 99 92 88 84 76 66 56 49 46 46 48 53 59 63 66 66 62 55 51 51
79 72 62 61 71 79 80 76 65 50 39 33 31 32 34 35 37 40 46 50 50 49 48 49 51 53 51 50 50 53 55 56 58 60 60 61 62 63 65 67 70 71 72 73 77 83 87 87 86 85 85 84 82 81 81 83 87 91 96 97 96 96 99 100 101 106 108 101 93 89 85 78 68 57 48 44 43 44 47 52 56 61 66 65 60 55 53
87 82 72 65 71 80 85 82 73 59 45 36 32 31 33 34 36 39 44 49 50 49 48 47 51 56 56 53 52 54 55 56 57 58 59 59 59 58 60 63 66 68 68 68 71 77 84 87 86 84 83 82 79 78 78 79 82 87 92 94 94 95 98 100 101 104 106 101 93 87 82 75 68 59 49 43 41 42 45 48 52 56 61 63 61 57 53
90 88 83 76 76 83 89 90 82 68 53 42 35 32 32 34 35 37 41 46 49 50 48 47 50 55 57 54 55 57 59 58 57 56 55 55 55 55 57 61 63 63 64 65 66 71 79 86 86 84 83 80 78 77 76 76 79 84 88 91 92 93 96 101 102 104 105 102 94 87 81 75 68 60 51 44 40 40 43 47 49 52 55 56 55 53 50
94 92 91 87 86 90 95 96 91 79 63 49 39 34 33 34 35 36 39 43 48 51 51 49 51 55 57 58 58 60 60 59 57 55 53 53 53 53 56 59 60 60 61 62 62 65 72 82 86 86 83 80 78 76 74 73 76 81 86 89 91 91 95 101 104 104 105 103 97 89 83 78 70 62 53 46 41 39 42 46 49 50 51 52 52 51 48
99 98 96 94 94 96 99 102 100 91 77 60 46 37 34 34 35 36 38 41 46 51 53 54 54 56 59 62 63 61 59 58 57 55 54 53 52 53 55 58 60 59 57 57 59 61 66 75 83 85 83 79 76 75 72 70 72 78 84 88 88 88 92 98 101 101 103 103 99 93 87 82 74 64 55 48 42 39 40 44 48 50 51 52 52 51 50
97 97 95 95 96 97 98 101 101 97 88 75 59 45 36 33 34 35 36 39 43 49 53 56 56 57 59 63 63 60 57 57 56 55 53 52 52 54 57 59 60 58 55 54 57 60 63 69 78 82 80 77 74 73 71 68 69 74 81 86 86 86 90 96 100 102 103 104 101 96 91 86 77 67 58 50 44 41 39 41 45 49 53 55 56 55 53
86 88 89 92 93 94 95 96 96 93 89 81 69 56 44 36 33 34 35 36 40 45 50 53 56 58 60 60 58 55 55 56 56 55 55 54 53 55 58 58 56 55 55 55 57 59 63 69 76 79 77 74 71 70 69 67 66 70 78 84 85 86 89 96 100 102 104 104 102 98 93 87 78 69 61 53 47 43 40 39 41 47 52 57 60 59 56
61 66 70 74 77 78 81 83 84 84 81 77 71 64 54 42 34 32 33 34 35 39 44 48 52 56 57 56 54 53 54 56 57 58 57 56 55 55 56 54 53 54 56 56 56 58 63 69 73 75 74 71 68 66 66 65 64 66 74 82 85 86 89 95 99 100 103 104 103 98 93 87 79 71 64 57 51 46 42 39 40 43 49 55 61 62 58
39 41 44 46 48 50 53 57 60 63 66 66 65 63 58 49 39 32 30 31 32 34 38 43 47 52 54 53 52 53 55 56 58 59 58 56 56 55 54 53 53 54 56 56 56 59 62 65 68 71 71 68 64 62 62 63 62 64 70 79 84 86 89 94 98 101 103 104 102 98 93 88 81 74 67 61 55 50 45 40 39 41 46 52 58 60 58
31 31 31 32 32 33 34 36 37 40 44 49 52 54 53 49 42 34 29 29 30 31 34 38 42 47 50 50 51 53 55 55 56 57 57 56 55 54 54 55 55 55 55 55 57 58 60 62 64 66 66 64 60 58 59 61 61 61 67 76 83 86 88 91 97 102 105 104 101 99 94 89 83 77 72 66 59 54 48 42 39 40 44 49 54 57 57
29 28 27 27 27 27 28 29 30 30 32 35 39 42 43 44 41 35 29 27 27 28 30 34 38 43 47 48 49 51 51 51 53 55 55 54 54 54 56 58 59 57 55 56 58 58 59 59 60 62 63 61 57 55 57 59 59 59 64 72 81 86 87 88 93 101 104 103 101 100 95 88 83 79 75 69 62 56 50 44 40 40 44 48 51 54 56
30 27 25 24 24 25 26 27 27 28 28 29 31 33 35 37 38 35 30 27 26 27 27 30 34 39 43 45 47 48 48 47 48 49 49 50 52 54 54 56 57 57 57 57 57 56 55 55 56 59 60 58 55 54 55 57 57 58 62 70 79 86 87 86 88 96 101 102 101 99 92 85 82 80 76 69 62 56 51 46 41 40 43 47 50 53 55
29 27 25 24 23 23 24 25 26 26 27 27 28 29 30 32 34 33 30 27 25 25 26 28 31 35 40 42 44 45 46 45 44 45 45 48 51 53 53 54 55 56 56 56 54 53 52 53 55 57 57 54 52 52 54 55 56 57 61 68 77 85 88 86 88 94 99 100 99 96 89 83 81 80 75 67 60 55 52 48 43 41 43 46 50 53 55
29 26 24 23 23 23 24 24 25 25 26 26 27 27 28 29 30 30 28 27 25 25 25 26 28 32 37 40 41 43 45 45 45 45 46 46 48 51 53 54 55 55 55 54 53 51 51 54 56 55 53 51 51 51 53 54 55 55 60 67 76 84 86 85 87 92 97 99 97 92 86 82 80 78 72 65 58 54 52 49 46 43 44 46 51 55 57
28 26 24 23 23 23 23 24 24 25 25 25 25 26 27 28 28 28 27 26 26 25 25 26 27 30 34 38 39 41 44 45 46 47 47 46 47 49 52 53 53 53 52 52 52 51 52 53 54 52 49 49 50 52 53 53 53 55 60 67 75 81 84 84 85 90 96 97 93 87 81 79 78 76 70 62 56 53 51 49 48 46 45 47 52 56 57
Wind_Speed
9 7 6 5 4 5 7 10 12 13 15 17 17 17 17 18 18 17 16 14 11 10 10 11 13 14 15 17 18 19 21 22 23 24 25 26 27 28 29 30 33 35 39 42 44 46 48 50 53 55 57 58 60 61 62 66 70 74 78 82 85 87 88 90 93 96 98 101 103 105 108 111 114 117 120 122 125 126 128 129 129 130 132 130 125 123 122
7 6 5 5 6 8 10 12 14 15 17 18 19 19 18 18 17 16 15 13 11 11 12 12 13 14 15 16 17 19 20 21 22 24 25 26 26 27 28 30 33 36 39 41 43 46 49 51 53 55 57 58 59 61 62 66 70 74 78 82 86 89 92 94 96 98 99 102 104 107 109 112 115 118 121 123 125 127 128 129 128 128 131 132 128 123 121
6 5 6 7 9 10 12 14 15 17 18 18 19 19 19 18 16 15 13 11 12 12 12 12 13 13 15 15 17 18 19 20 22 23 24 25 26 27 29 31 34 36 39 41 44 47 49 51 54 55 56 57 59 60 62 66 70 74 77 81 85 89 93 97 100 104 106 109 112 113 113 114 115 117 121 124 126 128 129 130 130 128 128 131 131 125 121
6 6 7 9 10 12 14 15 16 18 19 18 19 20 19 17 15 13 11 11 13 12 10 11 12 12 14 15 16 18 19 20 22 23 24 24 25 27 29 32 35 37 39 41 44 47 50 52 54 55 56 57 59 60 62 66 71 74 77 80 83 87 92 97 101 105 108 111 114 116 116 116 116 117 120 123 127 129 131 131 132 130 128 128 130 128 123
7 8 9 10 12 13 15 16 18 19 19 19 20 20 19 16 13 12 11 12 12 10 9 10 11 11 12 13 15 17 19 20 21 22 23 24 25 26 29 32 35 37 40 43 46 48 50 53 55 56 57 58 59 61 63 68 72 75 77 80 83 86 90 94 99 103 106 109 112 115 116 117 117 118 120 123 127 128 130 131 132 133 132 131 132 131 127
8 9 11 12 13 14 15 17 18 19 19 20 20 20 18 16 13 11 12 12 11 9 8 9 9 10 11 12 14 16 18 19 20 22 24 24 25 26 28 31 34 37 40 43 46 49 51 53 55 56 58 59 60 62 65 69 72 74 77 80 83 86 89 92 97 101 103 106 110 113 115 116 118 119 121 124 126 128 129 131 132 134 137 137 136 135 132
9 11 13 14 14 15 16 17 18 19 20 20 20 19 17 15 13 11 11 11 10 8 7 8 8 8 9 10 13 15 17 18 19 22 24 25 25 26 28 30 33 37 40 43 45 47 50 52 54 56 58 59 61 63 66 69 72 74 77 81 83 86 89 92 95 99 101 104 108 112 114 116 117 118 121 123 126 128 129 131 133 134 137 139 139 138 135
9 11 13 14 15 16 17 18 19 20 20 20 20 18 16 13 12 11 10 9 8 7 7 7 7 7 7 9 11 13 15 17 19 21 23 25 26 26 27 29 33 36 40 42 44 46 48 51 53 56 58 60 62 64 67 69 72 76 78 81 84 86 89 92 95 98 99 101 106 110 114 116 116 117 119 121 124 128 130 133 135 136 137 138 139 138 136
10 11 13 14 15 16 17 19 20 20 20 20 19 17 14 12 11 10 9 8 7 6 6 6 6 6 6 7 9 12 13 15 18 20 23 25 26 26 27 29 33 37 40 43 45 47 49 51 53 56 58 61 63 65 67 70 73 76 79 82 84 87 90 93 95 97 99 101 105 109 112 115 115 115 118 121 125 130 133 136 138 139 139 139 140 140 138
11 12 13 13 14 16 17 18 19 20 20 19 18 16 13 11 10 8 7 7 6 6 5 5 5 6 6 6 8 10 12 14 17 20 23 25 25 26 28 31 35 38 41 44 45 47 49 51 54 56 59 61 64 66 68 71 73 76 79 81 84 87 90 94 96 98 99 101 105 109 112 114 116 117 121 124 128 132 136 138 139 140 141 142 142 142 141
11 13 14 14 14 15 16 17 18 20 19 19 17 15 12 10 9 7 6 5 5 5 5 5 5 5 5 6 7 9 11 14 16 19 22 24 25 27 29 33 37 40 42 44 46 47 49 52 55 57 60 63 65 67 69 71 73 76 79 82 85 88 91 95 98 100 101 102 105 109 113 117 120 123 125 129 131 133 136 138 139 139 141 144 145 145 144
11 13 14 14 14 14 15 16 18 19 19 18 16 14 11 9 7 6 5 4 4 5 5 5 5 5 5 6 7 9 11 13 16 19 22 24 26 28 30 34 38 40 43 44 46 47 50 53 55 58 61 64 66 68 69 71 74 77 80 83 85 88 91 95 98 102 104 105 107 111 115 120 123 124 126 129 131 133 135 138 140 142 144 146 147 147 146
10 12 14 14 15 15 15 16 17 18 18 17 15 13 10 8 6 5 4 4 4 5 5 6 5 5 5 6 8 10 12 14 17 20 22 24 26 28 31 35 38 40 42 44 45 48 51 53 56 59 61 64 66 67 69 71 74 77 81 84 87 89 92 95 99 102 104 106 109 113 116 120 121 122 125 128 132 135 139 142 144 147 149 149 149 148 147
10 12 13 14 15 15 15 15 17 18 18 16 14 12 10 7 5 4 3 3 4 5 5 5 5 4 5 7 9 10 12 14 17 20 22 24 26 29 32 35 38 40 42 44 45 48 51 54 56 58 61 63 65 67 69 71 75 78 82 85 88 91 94 96 99 103 106 107 109 111 114 118 121 124 126 130 134 137 142 146 149 150 151 150 149 149 148
11 12 13 13 14 15 15 15 16 17 17 16 14 11 9 7 5 3 2 2 3 4 5 5 4 4 5 7 9 10 12 15 18 20 22 24 26 29 32 35 37 40 42 43 45 48 51 54 56 57 59 62 64 67 69 72 76 80 83 86 90 92 95 98 100 103 107 110 112 113 115 119 124 128 130 132 134 136 139 144 148 149 149 149 150 151 150
10 13 13 14 14 15 15 16 16 17 17 16 13 11 9 7 4 3 2 1 3 4 4 4 4 4 5 7 9 10 12 15 18 21 22 24 26 29 32 34 37 39 41 43 46 49 52 54 56 57 59 62 65 67 70 72 76 80 83 87 90 93 96 99 101 104 107 111 115 118 120 122 125 129 132 133 134 136 137 139 142 146 149 151 153 154 154
9 13 15 15 15 16 16 16 16 16 17 15 13 11 9 7 5 3 2 1 2 3 3 3 3 4 5 7 8 9 12 15 18 21 22 24 26 29 32 35 37 39 41 43 46 49 52 55 57 58 59 62 64 67 70 73 75 79 83 86 90 93 95 98 101 104 107 111 115 119 121 124 126 130 133 134 134 135 137 138 141 146 151 154 156 156 156
7 12 15 15 16 17 17 17 17 17 17 16 14 12 9 7 5 4 2 1 0 2 2 3 3 3 5 6 7 9 12 15 18 20 22 24 26 29 32 35 37 39 41 44 46 50 53 55 57 59 60 62 65 67 71 74 76 79 83 86 89 92 95 97 101 104 107 110 113 117 120 123 126 130 134 135 133 133 136 140 144 147 152 155 157 157 157
6 10 15 16 17 17 18 17 17 17 17 16 15 13 10 8 6 5 4 2 1 1 2 3 3 3 4 6 7 8 12 15 18 20 23 25 27 30 33 35 37 40 42 44 47 50 53 55 58 60 61 63 65 68 71 75 78 81 84 87 89 92 95 98 101 104 107 110 112 115 119 122 125 129 133 136 137 136 138 142 145 147 150 154 157 158 158
4 8 14 17 17 17 18 18 18 18 18 17 16 14 11 9 7 6 5 4 3 2 3 3 2 2 4 5 6 8 12 14 17 20 23 26 29 31 34 35 38 40 42 44 46 49 53 56 58 60 62 64 66 69 72 76 79 82 85 88 91 94 96 99 102 106 109 111 114 117 120 123 125 128 133 138 142 143 142 142 143 145 148 152 156 158 159
3 6 12 17 18 18 18 18 18 18 18 17 16 15 12 10 9 8 7 5 4 3 4 3 1 2 3 4 5 8 11 14 17 20 23 27 30 32 34 36 38 40 42 44 46 49 53 56 59 61 63 65 67 70 73 76 80 83 86 90 93 96 98 101 104 108 111 114 117 120 123 125 127 130 133 138 143 146 145 143 143 144 147 151 155 158 159
4 5 10 16 18 18 19 19 19 19 19 18 17 16 13 11 11 9 8 7 5 5 4 3 2 2 3 3 5 8 11 13 17 20 24 27 30 32 34 36 38 40 42 44 46 49 52 55 58 61 64 66 68 71 74 77 80 83 87 90 94 97 99 102 105 109 112 115 118 121 124 126 128 130 133 136 140 144 146 146 144 144 146 149 153 157 159
6 5 8 15 19 19 19 20 19 20 20 19 18 17 14 13 12 11 10 8 7 6 5 3 3 3 3 3 5 8 11 13 17 20 24 27 29 32 34 36 38 40 42 44 46 49 52 55 58 61 64 66 69 71 74 77 80 83 87 91 94 97 99 102 104 107 110 113 116 119 122 125 127 129 131 133 137 141 145 147 146 144 145 147 151 155 159
9 7 7 13 18 20 20 20 20 21 21 21 19 18 16 14 13 12 11 9 8 7 6 4 4 4 4 4 6 9 11 13 17 20 23 26 29 32 34 36 38 39 42 44 47 49 52 55 58 61 64 67 69 72 74 77 80 83 86 89 92 95 98 101 104 106 108 110 113 117 120 122 125 127 129 131 134 138 143 146 146 145 145 146 149 153 157
12 9 8 11 17 21 21 21 21 22 22 22 21 19 17 16 15 14 12 11 9 8 7 6 5 5 5 6 7 9 11 14 17 20 23 26 29 32 34 36 38 40 42 44 47 49 52 55 58 61 64 67 70 72 75 78 80 83 86 88 91 94 97 100 103 105 107 109 112 115 118 121 124 126 128 129 131 135 140 144 145 144 144 145 147 151 155
14 13 11 11 16 21 23 23 23 23 23 23 22 21 19 17 16 15 14 12 11 10 8 7 7 7 7 7 8 10 12 14 17 20 23 26 29 32 35 37 38 40 42 44 47 49 52 54 57 61 64 67 70 73 76 78 81 83 86 89 91 94 96 99 102 104 106 108 111 113 116 119 122 125 127 128 129 133 137 142 143 143 141 141 144 148 152
17 16 14 12 15 20 23 24 24 24 24 24 24 22 20 19 18 17 15 14 12 11 10 9 8 8 8 9 10 11 12 14 17 20 23 26 29 32 35 37 39 41 43 44 47 50 52 54 57 60 63 67 70 73 76 79 81 83 86 88 91 93 95 98 100 102 105 108 110 113 116 118 121 124 127 128 130 132 136 140 142 142 140 140 141 145 149
18 18 17 15 15 19 23 25 25 25 25 25 25 24 22 20 19 18 17 16 14 13 12 11 10 10 10 10 11 12 13 15 18 21 23 26 29 32 35 38 40 41 43 44 47 49 52 54 57 60 63 66 69 72 76 79 81 84 86 88 91 93 95 98 100 103 106 109 111 114 117 119 122 124 127 129 130 132 135 138 141 141 141 140 140 143 147
19 20 19 17 16 18 23 26 27 27 27 26 26 26 24 22 21 20 19 18 16 15 14 12 12 11 11 12 12 13 14 16 18 21 24 26 29 32 35 38 40 42 44 45 47 49 52 54 57 60 62 65 68 72 75 78 81 84 86 88 91 94 96 99 101 103 106 109 111 114 116 119 122 125 127 128 130 131 134 138 140 141 141 141 141 143 146
19 20 21 19 18 18 22 26 28 28 28 27 27 27 26 24 23 22 21 20 18 16 15 14 13 13 13 13 14 14 15 17 19 21 24 27 29 31 34 37 40 43 44 46 47 49 52 54 57 60 62 65 68 71 74 77 80 83 85 88 91 94 96 99 101 103 105 108 111 114 116 119 122 124 126 128 129 130 133 137 141 142 141 141 141 143 146
18 20 22 21 20 19 21 25 29 29 29 28 28 28 28 26 25 24 23 22 20 18 17 16 15 15 15 14 15 16 16 18 20 22 24 27 29 31 34 37 40 42 45 46 48 49 52 55 57 60 62 65 68 70 73 76 79 82 85 87 90 93 96 98 100 103 105 107 110 113 116 118 121 123 125 127 128 130 133 137 141 142 142 141 142 143 145
18 20 22 23 21 20 21 24 28 30 30 30 30 29 29 29 27 26 25 24 22 20 19 17 17 16 16 16 17 17 18 19 21 23 25 27 29 32 34 37 39 42 45 47 48 50 52 55 57 60 62 65 68 70 73 76 78 81 84 86 89 92 95 97 99 102 104 106 109 111 114 117 119 121 124 126 129 131 132 136 140 142 142 141 142 143 145
18 20 22 23 23 21 21 22 27 30 31 31 31 31 31 30 29 27 27 25 24 22 21 19 18 18 18 18 18 19 19 20 22 23 26 28 30 32 34 37 39 42 45 47 49 51 53 55 58 60 62 65 67 70 73 76 78 81 83 85 88 91 94 96 99 101 104 106 109 111 113 116 118 121 124 127 129 131 132 134 138 141 141 140 140 141 143
19 20 22 23 23 22 21 22 25 29 32 32 32 32 32 32 31 29 28 27 26 24 23 21 20 20 20 20 20 20 21 22 23 25 27 29 31 33 35 37 39 42 45 47 50 51 53 56 58 60 62 65 67 70 73 75 78 80 82 84 87 90 93 95 98 100 103 106 108 110 112 115 118 121 124 126 128 130 131 133 136 139 139 138 139 140 142
20 20 21 23 24 23 22 22 24 28 32 33 33 33 33 33 32 31 30 29 28 27 25 24 22 22 22 22 22 23 23 24 25 26 28 30 32 34 36 38 40 42 45 47 50 52 54 56 58 60 63 65 67 70 72 75 77 80 81 83 86 88 91 94 96 99 102 104 107 109 111 114 117 120 122 124 127 129 131 133 135 137 138 138 138 139 141
21 21 21 23 24 24 23 23 23 27 31 34 34 34 34 34 34 33 32 31 30 29 28 26 24 24 24 24 24 25 25 26 27 28 29 31 33 35 36 38 40 42 45 47 50 52 54 56 58 60 63 65 67 70 72 74 77 79 81 83 85 87 90 92 95 98 101 103 106 108 111 113 116 118 120 123 125 128 130 132 134 136 137 137 137 138 140
22 22 22 23 25 25 24 23 24 26 30 34 35 35 35 35 35 35 34 33 32 31 30 28 27 26 26 25 25 26 27 27 28 29 31 33 34 36 37 39 41 43 45 48 50 52 54 56 59 61 63 65 68 70 72 74 76 79 80 82 84 86 89 91 94 97 100 102 105 107 110 112 114 116 119 121 124 127 130 131 133 134 136 137 137 138 140
22 22 22 24 25 26 25 24 24 25 28 33 36 36 35 36 36 36 36 35 34 33 32 30 30 29 28 27 27 28 28 29 30 31 33 34 36 37 39 40 42 44 46 48 50 52 54 57 59 61 63 66 68 70 72 74 76 78 80 82 84 86 88 90 93 96 98 101 104 106 108 110 112 115 118 120 123 126 129 131 132 134 135 136 138 139 141
22 22 22 24 26 26 26 25 25 25 27 31 35 37 37 37 37 37 38 37 36 35 34 33 32 32 31 30 30 30 30 31 32 33 35 36 37 38 40 41 43 45 47 48 50 53 55 57 59 61 64 66 68 70 72 74 76 78 80 82 84 86 88 90 92 95 97 100 103 105 107 109 111 114 117 119 122 124 127 130 132 133 135 137 138 140 141
22 22 22 24 26 27 27 26 26 26 27 30 34 37 38 38 38 38 39 39 37 37 36 35 34 34 34 33 32 32 32 33 34 35 36 37 38 39 41 42 44 46 48 49 51 53 55 57 59 62 64 66 68 70 72 74 76 78 80 82 84 86 88 90 92 94 97 100 102 105 107 109 111 113 116 119 121 123 125 128 130 132 134 136 139 141 142
24 23 23 24 26 27 28 28 28 28 28 29 32 36 39 39 39 40 40 40 39 38 38 37 37 36 36 35 35 34 34 35 36 37 38 39 40 41 42 44 45 47 49 50 52 53 55 58 60 62 64 67 68 70 72 74 76 78 80 82 84 86 88 90 92 94 96 99 101 104 106 109 111 113 115 118 121 122 124 126 128 131 133 136 138 141 143
25 25 25 26 27 28 29 29 30 29 29 30 31 35 38 41 41 41 41 41 41 40 40 39 39 39 39 38 37 37 37 37 38 38 39 41 42 43 44 46 47 49 50 51 52 54 56 57 60 62 65 67 69 71 72 74 76 78 80 82 84 86 88 90 92 94 95 98 100 103 106 108 110 112 114 117 120 122 123 125 127 129 132 135 137 140 142
27 28 28 28 29 30 31 31 32 32 31 31 32 34 38 41 42 42 42 43 43 42 42 41 41 41 41 40 40 39 39 39 39 40 41 42 43 45 46 48 49 51 52 53 54 55 57 58 60 63 65 68 70 71 72 74 76 78 80 82 84 86 88 90 92 93 95 97 100 102 105 107 109 111 113 116 119 122 123 125 126 128 131 133 136 139 142
30 31 31 31 32 33 33 34 34 35 34 34 34 35 37 40 43 44 44 44 44 44 44 43 42 42 42 43 42 41 40 40 40 41 42 43 45 46 47 49 50 52 53 54 55 56 58 60 61 63 66 68 70 71 72 74 76 78 80 82 84 86 88 90 92 93 94 97 99 101 104 106 109 111 113 115 118 121 123 125 126 128 130 132 135 138 140
30 32 33 34 35 36 36 37 37 37 37 37 37 37 38 40 43 45 46 45 45 45 45 44 44 44 44 44 44 43 42 42 42 42 43 45 46 47 48 49 51 52 54 55 56 57 59 61 62 64 66 68 70 72 73 74 76 78 80 82 83 85 87 90 92 93 94 96 99 101 103 106 108 111 113 115 118 121 123 125 126 127 129 131 134 136 139
31 32 33 34 35 36 37 37 38 38 39 39 39 39 40 42 44 46 47 47 46 46 46 45 45 45 45 45 46 45 44 44 44 44 45 46 47 48 49 50 51 52 54 56 57 58 60 61 62 64 66 68 70 72 73 74 76 78 79 81 83 85 87 89 91 92 94 96 99 101 103 105 108 110 112 115 118 120 123 125 126 127 129 130 132 135 138
31 32 33 34 35 35 36 36 36 37 37 38 39 41 41 43 44 46 47 47 47 46 46 46 46 46 46 47 47 47 46 46 45 46 46 47 48 49 50 51 52 53 54 56 58 59 61 62 64 65 66 68 70 72 73 74 76 78 79 81 83 84 87 89 91 92 94 96 98 100 103 105 107 110 112 115 117 120 123 124 125 127 128 130 131 133 136
31 32 33 33 33 33 34 34 34 34 35 36 37 39 41 42 44 45 47 47 47 46 46 46 46 47 47 47 48 48 47 47 47 47 48 48 49 50 51 52 54 55 56 57 59 61 62 64 65 66 67 69 70 72 73 75 76 78 79 81 82 84 86 88 91 92 93 95 98 100 103 105 107 109 112 115 117 120 123 124 125 126 128 130 131 133 135
30 31 31 31 31 31 31 32 32 33 33 33 35 36 39 41 42 44 45 46 47 46 46 45 46 47 48 48 48 48 49 48 48 48 49 49 50 51 52 53 54 56 58 59 60 62 64 65 66 66 67 69 70 72 74 75 76 78 79 81 82 83 85 88 90 91 93 95 97 100 102 105 107 109 112 114 117 120 123 124 125 126 128 129 131 132 134
29 30 30 29 29 29 29 30 30 31 31 32 33 34 36 38 40 42 43 45 46 46 46 45 46 47 48 48 48 49 50 50 50 49 50 50 51 52 53 55 56 57 59 60 62 63 64 65 65 66 68 69 71 72 74 75 76 78 79 80 81 83 85 87 89 91 92 94 97 99 102 104 107 109 111 114 117 120 123 124 125 126 127 129 130 132 133
28 28 28 28 28 28 28 28 28 29 30 31 31 33 34 36 38 40 41 43 44 45 45 45 46 47 48 49 49 49 50 51 51 51 51 52 52 53 55 56 58 59 61 62 63 63 64 65 66 67 68 70 72 73 74 75 76 77 79 80 81 83 85 87 88 90 92 94 97 99 101 104 106 109 111 114 117 120 123 124 125 126 127 128 130 131 133
27 27 27 27 27 27 27 27 27 28 29 30 31 32 33 35 36 38 39 41 43 45 45 45 46 47 48 49 49 50 51 52 53 53 53 53 54 55 56 58 59 60 62 63 64 64 64 64 66 68 70 71 73 74 75 76 76 77 79 80 81 82 84 87 88 89 91 94 96 98 101 104 106 109 112 115 118 121 123 124 125 126 126 128 129 131 133
Wind_Direction
118 120 122 127 132 136 141 140 136 135 136 137 137 135 131 128 130 133 132 132 133 123 107 96 89 84 81 79 76 72 69 65 58 52 47 43 40 39 38 35 32 30 28 27 25 23 22 21 20 19 18 17 16 16 15 14 13 12 12 11 10 9 10 10 9 9 8 7 7 6 6 5 6 6 5 4 4 3 3 3 3 2 0 360 1 0 358
116 118 122 125 130 136 139 137 135 138 141 140 137 133 130 130 134 135 135 135 127 109 100 94 88 85 83 80 75 71 66 61 56 49 44 40 38 38 37 33 30 28 27 25 23 22 21 20 19 18 17 16 15 15 14 13 12 12 11 11 9 8 7 7 7 7 8 7 7 7 6 6 6 6 5 4 4 3 3 3 3 3 2 360 360 1 359
113 116 120 126 132 135 136 136 139 142 143 141 136 132 131 135 138 139 139 131 113 102 97 92 88 86 83 79 73 68 63 57 53 47 40 36 37 37 35 31 28 26 25 23 22 21 20 19 18 17 16 15 14 13 13 12 11 11 11 10 9 7 5 5 5 5 6 7 6 6 6 6 6 6 6 5 4 4 3 3 2 3 3 1 0 1 0
108 114 121 126 129 132 137 142 144 143 142 140 134 132 135 140 144 143 135 117 106 102 97 91 89 86 83 78 71 64 59 55 49 43 37 34 35 36 32 28 26 23 22 21 20 19 19 18 17 16 15 14 13 12 11 11 10 9 9 9 8 7 5 4 5 5 5 6 6 5 5 5 6 6 6 5 4 4 3 3 2 2 3 3 2 1 1
108 115 121 125 129 135 142 145 143 142 142 139 135 135 139 144 148 142 125 110 106 104 96 90 90 87 83 77 68 61 57 53 46 39 34 32 33 33 29 26 23 21 19 19 18 17 17 16 15 14 14 13 12 11 10 9 9 8 8 8 8 8 6 4 4 4 4 4 5 5 4 4 5 5 6 6 5 4 3 2 2 2 2 4 3 2 2
112 119 123 127 134 142 145 143 142 143 142 138 137 140 144 145 144 131 114 108 107 103 94 89 88 87 84 75 65 59 56 51 42 34 32 31 30 29 26 23 21 19 18 16 16 16 15 15 14 13 12 11 10 9 9 8 8 8 8 8 9 9 7 5 4 4 4 3 4 5 4 4 4 5 5 6 5 4 3 2 2 3 3 4 4 4 3
119 128 131 135 141 145 144 142 143 144 142 140 140 144 146 143 135 121 112 109 107 101 93 87 86 85 83 74 63 58 55 48 38 32 30 28 26 25 22 20 18 17 16 15 15 15 14 14 14 13 12 10 9 9 8 8 8 8 8 8 8 9 8 7 5 4 4 3 3 5 4 4 4 5 5 6 5 4 4 3 2 3 4 4 5 4 3
125 132 137 141 145 145 145 145 145 144 143 143 143 144 144 138 128 118 111 107 104 101 91 84 82 82 81 72 61 57 53 43 34 30 28 25 23 22 19 17 16 15 14 14 14 14 14 14 14 13 12 11 9 9 8 8 8 8 8 8 8 9 9 8 6 5 5 4 3 4 4 4 4 5 5 5 5 4 4 4 3 4 4 5 5 5 4
129 133 138 142 145 147 148 149 148 146 147 147 146 145 142 135 125 117 108 103 102 97 87 77 75 78 80 70 59 55 50 38 31 28 25 22 21 19 17 15 13 13 13 13 13 13 13 14 13 12 11 10 9 9 8 8 7 7 7 7 7 8 8 8 7 6 5 4 4 4 4 3 3 4 4 5 5 5 5 5 4 4 4 5 5 5 5
133 136 139 144 147 149 153 155 152 150 151 151 148 146 143 135 126 116 107 103 97 88 78 68 67 76 81 68 56 53 45 33 27 23 21 19 18 17 15 13 11 11 11 11 11 12 12 13 12 11 10 9 9 8 7 7 7 7 7 7 6 7 7 8 7 6 6 5 4 4 4 4 3 4 5 5 6 6 6 5 5 5 5 5 6 6 6
138 141 142 148 152 154 159 161 156 153 155 155 151 149 145 137 127 116 106 98 85 75 67 63 70 82 83 64 53 49 39 28 23 20 17 16 15 15 14 12 10 10 10 10 11 11 12 12 11 10 9 8 8 7 7 6 5 5 6 6 6 6 6 6 7 6 6 6 5 4 4 4 5 5 5 5 6 7 7 6 5 5 6 6 6 6 6
143 147 148 152 156 159 164 166 161 158 159 159 155 152 147 139 128 117 106 91 73 60 57 65 77 88 79 57 48 43 33 25 21 18 16 15 14 14 12 10 9 9 9 10 10 11 11 10 10 9 9 8 7 6 6 5 4 4 5 5 5 5 5 5 6 6 6 6 6 5 5 5 5 5 6 6 6 7 8 7 6 6 6 7 7 7 6
147 152 154 156 159 164 170 171 167 163 163 163 160 156 149 141 132 121 104 81 62 54 58 71 83 83 67 50 44 38 31 25 20 17 16 14 14 13 11 9 9 9 9 10 10 10 10 9 9 9 8 8 6 5 4 3 3 3 4 4 4 4 4 4 5 6 6 6 6 6 5 5 5 5 6 7 7 7 8 8 8 7 7 7 7 7 7
152 157 159 161 164 169 174 176 173 169 168 167 165 159 152 145 137 124 99 70 56 58 64 77 84 75 56 46 41 37 31 25 19 16 15 14 14 13 10 9 9 9 9 9 9 9 9 8 8 8 8 7 6 4 3 2 2 3 3 4 4 4 4 4 5 6 6 6 7 7 6 5 5 5 6 7 8 9 9 9 9 9 8 7 7 7 7
157 162 164 167 169 173 178 181 179 175 173 173 170 165 158 152 146 132 102 63 58 62 67 74 76 62 48 44 40 38 32 24 18 17 15 14 13 11 9 9 9 9 9 8 8 8 7 7 7 7 7 7 5 4 3 2 2 3 3 4 4 4 4 4 4 5 6 5 6 7 7 7 7 6 6 6 8 9 10 10 10 9 8 7 7 7 7
162 167 168 171 174 177 182 186 184 181 179 178 176 172 166 159 156 147 123 69 60 63 61 59 56 47 44 44 41 37 30 22 18 17 14 13 12 10 9 10 10 9 8 7 7 7 6 6 6 6 6 6 5 4 3 3 2 3 3 3 3 4 4 4 4 5 6 6 5 5 6 7 7 7 7 6 6 7 9 10 10 9 8 8 8 8 7
166 173 174 175 178 182 187 191 191 188 185 184 182 181 175 168 168 168 154 104 62 56 47 37 34 38 45 44 40 34 26 20 18 16 13 12 10 9 9 10 9 8 8 7 6 6 5 5 5 5 5 4 4 3 2 2 2 2 3 3 3 3 4 4 4 5 6 6 5 5 6 6 7 7 8 7 7 6 7 8 10 10 9 9 9 8 8
168 179 181 181 184 187 192 197 197 194 191 189 189 188 183 178 182 185 181 169 84 41 25 14 18 40 45 39 33 28 22 18 16 13 12 11 9 8 9 9 8 8 7 6 5 5 4 4 4 4 4 3 2 2 1 1 2 2 2 3 3 3 3 4 5 5 5 6 6 5 6 7 6 7 7 8 7 7 7 7 9 10 10 10 9 9 8
167 184 188 188 189 192 195 201 203 200 196 195 194 193 189 188 193 196 194 201 226 332 352 357 17 43 39 27 24 21 17 15 13 11 11 10 8 8 9 8 7 7 6 5 4 4 3 3 3 3 3 3 2 1 1 2 2 2 2 3 3 4 4 4 4 5 5 6 6 6 6 7 7 7 7 7 7 8 8 8 9 10 10 10 10 9 9
170 188 193 193 195 197 199 204 207 206 202 199 199 197 194 196 201 202 203 215 233 275 318 335 8 34 21 15 14 14 11 10 10 10 10 9 8 8 7 6 6 5 4 3 3 2 2 2 2 2 3 2 2 2 2 2 3 3 3 3 3 3 4 4 4 4 5 5 5 6 6 7 7 7 7 7 7 8 8 8 8 9 10 10 10 10 9
187 196 198 198 199 202 204 207 210 210 207 203 201 199 198 202 206 205 209 220 235 262 291 308 330 355 359 2 3 5 5 5 7 8 8 8 7 6 5 4 4 3 2 2 1 1 1 1 1 1 2 2 2 2 3 3 4 3 3 3 3 3 4 4 4 4 4 5 5 6 6 6 6 6 6 7 7 7 7 8 8 9 9 10 10 10 9
212 208 205 203 203 205 208 211 212 213 211 207 204 202 202 206 209 209 213 222 237 257 276 289 299 316 336 348 351 355 358 0 3 4 5 5 4 3 2 1 1 1 1 0 360 359 359 359 360 0 1 1 1 2 3 3 4 4 4 4 4 3 4 4 5 5 4 4 5 5 6 6 6 6 6 6 6 6 7 7 8 8 9 10 10 10 10
223 221 211 207 206 207 211 213 214 216 215 212 208 205 206 210 212 213 217 225 237 253 266 273 281 294 310 329 338 344 350 354 357 358 1 2 1 359 358 358 359 359 359 358 358 358 358 359 359 360 0 0 1 1 2 3 4 4 4 4 4 4 4 4 5 5 5 5 5 5 6 6 5 5 5 5 5 5 6 6 7 8 9 10 10 10 10
226 230 221 211 209 210 213 215 216 218 218 216 212 209 210 214 216 217 221 228 238 250 257 261 269 278 289 307 325 334 341 347 350 353 356 358 358 356 355 355 356 356 356 356 357 357 358 358 358 359 359 359 360 1 2 3 3 4 4 4 4 4 4 4 4 5 5 5 5 5 5 5 5 5 5 5 5 5 5 6 7 8 8 9 10 10 10
226 233 232 219 212 211 214 217 218 220 221 220 216 212 213 217 219 221 225 232 242 251 254 254 260 271 281 297 314 325 332 339 344 348 352 354 354 353 353 353 354 354 354 355 355 356 356 357 358 358 359 359 360 0 1 2 3 4 4 4 4 4 4 4 4 4 5 5 5 4 4 5 5 5 5 5 5 5 5 6 7 7 8 9 9 10 10
224 231 237 230 218 214 215 217 219 221 222 223 221 217 216 220 222 224 228 235 244 252 255 254 257 264 274 289 307 317 325 333 339 343 347 350 351 351 352 352 352 352 352 353 354 354 355 355 356 357 358 358 359 0 1 1 2 3 3 3 3 3 3 4 4 4 4 4 4 4 4 4 5 5 5 5 5 5 5 6 6 7 8 9 9 9 10
221 226 234 236 227 219 217 218 220 221 223 224 224 221 220 222 225 227 231 238 245 253 257 256 257 262 269 284 300 311 321 329 335 339 343 346 347 349 349 349 350 350 350 351 352 352 353 353 354 355 356 357 358 359 0 1 2 2 2 2 2 2 3 3 3 2 2 3 3 4 4 4 4 4 5 5 5 5 5 6 6 7 8 9 10 10 10
223 223 229 236 234 224 220 220 221 222 223 225 225 224 223 225 227 230 233 239 246 253 258 257 258 262 270 281 294 306 317 326 332 336 339 342 345 346 346 347 347 348 349 349 350 351 351 351 352 353 354 356 357 358 359 0 1 1 1 1 1 1 1 1 1 1 1 2 3 3 4 4 4 4 4 5 5 5 5 6 6 6 7 8 9 10 10
227 224 226 233 237 231 224 222 223 224 224 225 227 226 226 228 230 231 235 240 246 253 258 259 260 263 269 278 290 302 314 322 328 332 336 339 342 342 343 344 345 347 348 348 349 349 349 350 351 352 353 355 356 357 358 359 0 0 0 0 0 0 0 1 0 0 0 1 2 3 3 3 3 3 4 4 4 4 5 5 6 6 7 7 8 9 10
232 227 226 231 237 236 229 225 225 225 226 226 227 228 228 230 232 233 236 241 246 252 258 260 261 264 269 276 288 300 310 317 323 328 332 336 338 339 340 342 343 345 346 347 347 348 348 349 350 351 352 353 355 356 357 358 359 359 359 359 359 359 360 360 360 360 0 0 1 1 2 2 3 3 3 3 4 4 4 5 6 6 6 7 8 9 10
238 231 228 231 237 241 236 229 226 227 228 228 228 229 229 231 233 235 237 241 246 252 257 260 261 263 269 275 284 295 304 312 318 324 328 332 334 335 337 339 341 343 344 345 346 347 347 348 349 350 351 352 354 355 356 357 357 358 358 358 358 358 359 359 359 359 360 0 0 1 1 2 2 2 2 3 3 3 4 5 5 5 5 6 7 9 10
244 236 231 233 238 243 242 235 230 228 229 229 230 230 231 232 234 236 238 242 246 251 256 259 261 263 267 272 281 290 299 307 314 319 324 328 330 332 333 336 338 340 342 343 345 346 347 347 348 349 350 351 352 354 355 356 356 356 357 357 357 357 358 358 358 359 359 359 360 0 0 1 1 1 2 2 3 3 3 4 4 5 5 6 7 8 9
250 242 235 235 239 245 247 242 234 230 230 231 231 232 232 233 235 238 240 242 246 251 255 259 262 263 267 271 278 286 294 302 309 314 319 323 326 328 330 333 335 337 339 341 343 344 346 346 347 348 349 350 351 353 354 354 355 355 356 356 356 356 357 357 358 358 358 358 359 359 360 360 0 1 2 2 3 3 3 3 4 4 5 6 7 8 9
255 249 241 238 241 247 250 248 240 233 231 232 233 233 234 235 236 239 241 243 246 250 255 259 262 264 268 271 276 283 291 298 304 310 314 319 322 325 327 330 332 335 337 339 341 343 344 345 346 347 348 349 350 352 353 353 353 354 354 355 355 355 356 356 356 357 357 357 358 358 359 359 360 0 1 2 2 2 2 3 3 4 5 6 6 8 9
259 255 247 241 242 247 252 252 246 238 233 233 234 235 235 236 238 240 243 244 246 250 255 259 263 265 268 271 275 281 288 294 300 305 310 314 318 322 324 327 329 332 334 337 339 341 342 343 344 346 347 348 349 350 351 352 352 353 353 354 354 355 355 355 355 356 356 356 357 357 358 358 359 360 1 1 2 2 2 3 3 4 5 5 6 7 8
261 259 252 245 244 248 252 254 252 244 237 235 235 236 237 237 239 241 243 246 248 250 254 259 263 267 270 272 276 280 285 290 295 301 306 311 315 318 321 324 327 329 332 334 337 339 340 341 343 344 346 347 348 349 350 350 351 351 352 352 353 353 353 354 354 355 355 356 356 356 357 358 358 359 360 0 1 2 2 2 3 4 4 5 6 6 7
263 261 256 249 246 248 252 255 256 251 242 238 237 238 238 239 240 242 244 247 249 251 255 259 263 267 270 273 276 279 283 287 292 297 302 307 311 315 318 321 324 327 330 332 334 337 338 339 341 343 344 345 346 347 348 349 349 350 350 351 351 352 352 352 353 354 354 355 355 355 356 356 357 358 358 359 0 1 2 2 3 4 4 5 5 6 7
265 263 259 252 248 249 252 256 259 256 248 242 239 239 240 240 241 243 245 247 250 252 255 258 262 266 270 273 275 278 282 286 290 294 299 303 308 312 315 319 322 325 327 329 332 334 336 338 339 341 342 344 345 346 346 347 347 348 348 349 350 351 351 351 352 352 353 354 354 355 355 355 356 356 357 358 359 0 1 2 3 3 4 4 4 5 5
266 264 260 255 250 250 253 256 259 259 254 247 242 241 241 242 243 243 245 248 250 253 255 258 262 266 269 272 275 278 281 284 288 292 296 300 305 309 313 316 319 322 325 327 330 332 334 336 337 339 340 342 343 344 345 345 346 346 347 347 348 349 350 350 350 351 352 353 353 353 354 354 354 355 356 357 358 359 0 1 2 3 3 3 4 4 5
266 265 262 257 253 252 254 257 260 261 258 252 246 243 243 244 244 245 246 248 251 253 256 258 261 265 269 272 274 277 280 283 286 290 293 297 302 306 310 314 317 320 323 326 328 330 332 333 335 336 338 339 341 342 343 344 344 344 345 346 347 348 348 349 349 349 350 351 352 352 352 353 353 354 355 356 357 358 359 0 1 2 3 3 3 3 4
266 265 263 260 257 255 256 258 260 262 261 256 249 245 243 245 246 247 248 249 251 254 256 258 261 264 268 271 274 276 279 282 285 289 292 296 300 304 308 311 314 318 321 324 326 328 330 331 333 334 336 337 339 340 341 342 342 343 343 344 345 346 347 347 348 348 348 349 350 351 351 352 352 353 354 355 356 357 357 358 359 0 1 2 2 2 3
266 264 263 261 260 259 258 259 260 261 261 259 254 248 244 245 246 248 249 250 251 253 256 258 261 263 267 270 273 276 279 281 285 288 291 295 298 302 306 309 312 315 318 321 324 326 327 329 331 332 334 335 336 338 339 340 341 341 342 343 344 345 346 346 347 347 347 348 349 350 351 351 351 352 352 353 354 355 356 357 358 359 360 0 1 1 2
267 265 264 263 262 261 261 260 260 260 260 260 257 252 247 245 246 248 249 250 251 253 255 258 260 263 266 269 272 275 278 281 284 288 291 295 298 301 304 308 311 314 317 320 322 324 326 327 329 331 332 333 334 336 337 338 339 340 340 341 342 344 345 345 346 346 346 347 348 349 350 350 350 351 351 352 353 354 355 356 356 357 358 359 359 0 0
269 268 266 264 263 262 261 261 260 260 259 259 258 255 251 248 247 247 249 250 251 252 254 257 259 262 265 268 272 275 278 281 285 288 292 295 298 301 304 306 309 313 316 318 321 322 324 326 328 329 330 331 332 334 335 337 338 338 339 340 341 342 344 344 344 345 345 346 347 348 348 349 349 350 350 351 352 353 354 354 355 356 356 357 358 359 359
274 272 269 267 265 264 263 262 261 260 259 258 257 256 254 251 248 248 249 250 251 253 254 256 259 262 265 268 272 275 278 281 285 288 291 294 297 300 303 306 309 312 315 317 319 321 323 324 326 327 328 329 330 332 333 335 336 337 337 338 340 341 342 343 343 343 344 344 345 346 347 347 348 348 349 350 351 352 353 353 354 354 355 356 356 357 358
280 278 275 273 271 269 268 266 264 263 261 258 257 256 255 253 250 249 249 250 252 253 255 256 259 262 265 268 271 275 278 281 285 288 291 294 297 300 303 306 309 312 314 316 318 319 320 322 323 325 326 327 329 330 331 333 334 335 336 337 338 340 341 342 342 342 342 343 344 345 346 346 347 347 348 348 349 350 351 352 352 353 354 355 355 356 357
285 282 280 277 276 274 273 271 270 268 265 262 259 257 256 255 253 251 250 251 252 254 255 257 259 261 265 268 271 274 278 281 284 287 290 293 296 300 303 306 308 311 313 315 316 317 319 320 321 323 324 326 327 329 330 332 333 334 335 336 337 338 340 340 340 340 341 342 343 344 345 345 345 346 347 347 348 349 350 351 351 352 353 354 354 355 356
289 287 285 282 279 277 275 274 272 271 269 266 263 260 258 257 256 254 253 252 253 255 256 257 259 261 264 267 270 274 277 280 284 287 290 293 297 299 302 305 307 310 312 313 315 316 317 319 320 321 323 325 326 327 329 330 331 332 333 334 336 337 338 339 339 339 339 341 342 343 343 344 344 345 346 346 347 348 349 349 350 351 352 353 353 354 355
295 293 290 287 284 280 277 275 273 272 271 269 267 264 261 260 259 257 256 255 255 256 258 259 260 262 264 267 270 274 277 281 284 287 290 293 296 299 302 304 306 308 311 312 314 316 317 318 318 320 322 323 325 326 328 329 330 331 332 333 334 336 337 338 338 338 338 339 340 341 342 343 344 344 345 346 346 347 348 348 349 350 351 351 352 353 354
300 297 295 292 289 285 281 278 275 273 271 270 269 266 264 263 262 261 259 257 257 258 259 261 262 263 265 268 271 274 277 281 284 287 290 293 296 298 301 304 306 307 310 312 313 315 316 317 317 319 321 322 324 325 326 327 328 330 331 332 333 334 336 336 337 336 337 338 339 340 341 342 343 343 344 345 346 346 346 347 348 348 349 350 351 352 353
304 300 297 294 292 288 284 280 277 274 272 270 269 268 267 265 265 264 262 261 260 260 261 263 264 265 267 269 272 275 277 281 284 287 290 293 296 298 300 303 305 307 309 311 313 315 316 317 317 319 320 322 323 324 325 326 327 328 329 330 331 333 334 335 335 335 335 336 338 339 340 341 342 342 343 344 345 345 345 346 346 347 348 349 350 351 352
307 303 299 296 293 289 286 282 278 275 273 271 270 269 269 268 267 267 265 263 262 261 262 264 266 267 268 270 273 276 278 281 284 287 290 293 296 298 300 302 305 307 310 312 313 315 316 317 318 319 320 321 322 323 323 324 325 327 328 329 330 332 333 334 334 334 334 335 337 338 339 340 340 341 342 343 343 344 344 345 345 346 347 348 349 350 351